period_start,C,m1,H,J0,J1,J2,J3,J4,J5,JA,JB,JC,JD,JJ,JK,JN,#
2013-09-11 00:00:48,-0.01,0.10,0.00,25.81,28.30,30.81,5.87,30.17,999.53,2047.00,3417.58,3331.19,3604.16,350.47,316.22,27.63,0000 0000 0000 0000 000000
2013-09-11 00:01:48,-0.03,0.10,0.00,25.82,28.30,30.82,5.77,30.29,999.53,2047.00,3417.73,3331.36,3604.31,349.69,315.48,27.63,0000 0000 0000 0000 000000
2013-09-11 00:02:49,-0.05,0.10,0.00,25.82,28.30,30.81,5.91,30.25,999.53,2047.00,3417.71,3331.43,3604.34,350.27,316.08,27.64,0000 0000 0000 0000 000000
2013-09-11 00:03:49,-0.01,0.10,0.00,25.86,28.30,30.81,5.84,30.96,999.53,2047.00,3417.58,3331.23,3604.22,350.41,315.98,27.64,0000 0000 0000 0000 000000
2013-09-11 00:04:49,0.06,0.10,0.00,25.91,28.30,30.80,5.78,30.33,999.53,2047.00,3417.50,3331.11,3604.11,349.95,315.38,27.65,0000 0000 0000 0000 000000
2013-09-11 00:05:49,0.05,0.10,0.00,25.89,28.30,30.81,5.87,30.29,999.53,2047.00,3417.36,3331.05,3604.06,349.85,314.94,27.66,0000 0000 0000 0000 000000
2013-09-11 00:06:50,0.03,0.10,0.00,25.85,28.30,30.81,5.88,30.29,999.53,2047.00,3417.32,3331.07,3604.06,350.72,316.14,27.66,0000 0000 0000 0000 000000
2013-09-11 00:07:50,-0.00,0.10,0.00,25.84,28.30,30.81,5.91,30.25,999.53,2047.00,3417.24,3331.06,3604.08,350.22,315.70,27.67,0000 0000 0000 0000 000000
2013-09-11 00:08:50,0.02,0.10,0.00,25.79,28.30,30.79,5.75,30.04,999.53,2047.00,3417.19,3331.05,3604.04,350.33,315.67,27.67,0000 0000 0000 0000 000000
2013-09-11 00:09:51,0.00,0.10,0.00,25.82,28.30,30.80,5.58,29.92,999.53,2047.00,3417.21,3331.03,3604.02,349.10,314.63,27.68,0000 0000 0000 0000 000000
2013-09-11 00:10:51,0.01,0.10,0.00,25.83,28.30,30.79,5.70,30.13,999.53,2047.00,3417.15,3331.02,3604.02,349.65,315.54,27.68,0000 0000 0000 0000 000000
2013-09-11 00:11:51,0.01,0.10,0.00,25.79,28.30,30.81,5.86,29.96,999.53,2047.00,3417.11,3331.02,3604.03,350.57,316.13,27.69,0000 0000 0000 0000 000000
2013-09-11 00:12:51,0.00,0.10,0.00,25.70,28.30,30.82,5.79,30.04,999.53,2047.00,3417.13,3331.03,3604.08,349.48,315.33,27.70,0000 0000 0000 0000 000000
2013-09-11 00:13:51,-0.01,0.10,0.00,25.72,28.30,30.82,5.86,30.38,999.53,2047.00,3417.19,3331.09,3604.06,350.57,315.45,27.70,0000 0000 0000 0000 000000
2013-09-11 00:14:52,-0.02,0.10,0.00,25.76,28.30,30.81,5.83,30.21,999.53,2047.00,3417.21,3331.08,3604.05,350.46,316.00,27.71,0000 0000 0000 0000 000000
2013-09-11 00:15:52,0.01,0.10,0.00,25.80,28.30,30.79,5.71,30.00,999.53,2047.00,3417.13,3331.08,3604.03,349.76,315.33,27.71,0000 0000 0000 0000 000000
2013-09-11 00:16:52,0.01,0.10,0.00,25.82,28.30,30.80,5.83,30.38,999.53,2047.00,3417.08,3331.07,3604.03,350.33,315.81,27.72,0000 0000 0000 0000 000000
2013-09-11 00:17:52,0.00,0.10,0.00,25.83,28.30,30.81,5.79,30.04,999.53,2047.00,3417.11,3331.14,3604.06,350.55,316.00,27.73,0000 0000 0000 0000 000000
2013-09-11 00:18:53,-0.03,0.10,0.00,25.88,28.30,30.81,5.78,30.17,999.53,2047.00,3417.14,3331.16,3604.11,350.22,315.65,27.73,0000 0000 0000 0000 000000
2013-09-11 00:19:53,0.00,0.10,0.00,25.87,28.30,30.81,5.74,30.33,999.53,2047.00,3417.11,3331.10,3604.08,350.18,315.71,27.74,0000 0000 0000 0000 000000
2013-09-11 00:20:53,0.01,0.10,0.00,25.87,28.30,30.81,5.81,30.13,999.53,2047.00,3417.17,3331.08,3604.06,349.80,314.66,27.74,0000 0000 0000 0000 000000
2013-09-11 00:21:53,0.00,0.10,0.00,25.89,28.30,30.82,5.96,30.25,999.53,2047.00,3417.18,3331.07,3604.06,350.32,315.15,27.75,0000 0000 0000 0000 000000
2013-09-11 00:22:54,0.00,0.10,0.00,25.94,28.30,30.81,5.75,30.17,999.53,2047.00,3417.18,3331.08,3604.06,349.90,315.31,27.75,0000 0000 0000 0000 000000
2013-09-11 00:23:54,0.00,0.10,0.00,25.91,28.30,30.82,5.90,30.17,999.53,2047.00,3417.14,3331.03,3604.04,350.22,315.63,27.76,0000 0000 0000 0000 000000
2013-09-11 00:24:54,0.01,0.10,0.00,25.88,28.30,30.83,5.75,30.17,999.53,2047.00,3417.09,3331.04,3604.02,349.80,314.89,27.77,0000 0000 0000 0000 000000
2013-09-11 00:25:54,0.00,0.10,0.00,25.84,28.30,30.81,5.84,30.25,999.53,2047.00,3417.10,3331.03,3604.05,350.41,316.10,27.77,0000 0000 0000 0000 000000
2013-09-11 00:26:55,0.00,0.10,0.00,25.80,28.30,30.81,5.90,30.25,999.53,2047.00,3417.08,3331.05,3604.04,350.17,315.67,27.78,0000 0000 0000 0000 000000
2013-09-11 00:27:55,0.00,0.10,0.00,25.75,28.30,30.80,5.93,30.13,999.53,2047.00,3417.07,3331.05,3604.03,350.13,315.92,27.78,0000 0000 0000 0000 000000
2013-09-11 00:28:55,0.00,0.10,0.00,25.73,28.30,30.81,5.81,30.13,999.53,2047.00,3417.07,3331.05,3604.04,350.59,316.14,27.79,0000 0000 0000 0000 000000
2013-09-11 00:29:55,0.00,0.10,0.00,25.74,28.30,30.81,5.97,30.33,999.53,2047.00,3417.10,3331.08,3604.04,350.82,315.88,27.80,0000 0000 0000 0000 000000
2013-09-11 00:30:55,0.00,0.10,0.00,25.76,28.30,30.81,5.85,30.13,999.53,2047.00,3417.05,3331.05,3604.01,350.55,315.85,27.80,0000 0000 0000 0000 000000
2013-09-11 00:31:56,0.01,0.10,0.00,25.79,28.30,30.81,5.73,30.25,999.53,2047.00,3417.07,3331.04,3604.01,350.05,315.77,27.81,0000 0000 0000 0000 000000
2013-09-11 00:32:56,0.00,0.10,0.00,25.79,28.30,30.82,5.88,30.04,999.53,2047.00,3417.03,3331.05,3604.02,350.08,315.45,27.81,0000 0000 0000 0000 000000
2013-09-11 00:33:56,0.00,0.10,0.00,25.81,28.30,30.81,5.74,30.25,999.53,2047.00,3417.03,3331.06,3604.02,350.77,316.19,27.82,0000 0000 0000 0000 000000
2013-09-11 00:34:56,0.00,0.10,0.00,25.78,28.30,30.81,5.81,30.08,999.53,2047.00,3417.02,3331.04,3604.01,349.20,314.68,27.83,0000 0000 0000 0000 000000
2013-09-11 00:35:56,0.00,0.10,0.00,25.71,28.30,30.81,5.73,30.04,999.53,2047.00,3417.01,3331.03,3604.00,350.34,316.15,27.83,0000 0000 0000 0000 000000
2013-09-11 00:36:57,0.00,0.10,0.00,25.72,28.30,30.81,5.85,30.33,999.53,2047.00,3417.00,3331.03,3604.00,350.04,315.67,27.84,0000 0000 0000 0000 000000
2013-09-11 00:37:57,0.00,0.10,0.00,25.72,28.30,30.80,5.67,30.42,999.53,2047.00,3417.00,3331.02,3604.00,349.18,314.88,27.84,0000 0000 0000 0000 000000
2013-09-11 00:38:57,0.00,0.10,0.00,25.76,28.30,30.81,5.81,30.21,999.53,2047.00,3417.00,3331.01,3604.00,350.22,315.79,27.85,0000 0000 0000 0000 000000
2013-09-11 00:39:57,0.00,0.10,0.00,25.82,28.30,30.83,5.90,30.13,999.53,2047.00,3417.00,3331.01,3604.02,349.37,314.94,27.85,0000 0000 0000 0000 000000
2013-09-11 00:40:58,0.00,0.10,0.00,25.75,28.30,30.82,5.84,30.33,999.53,2047.00,3417.00,3331.00,3604.00,350.07,315.70,27.86,0000 0000 0000 0000 000000
2013-09-11 00:41:58,0.00,0.10,0.00,25.76,28.30,30.81,5.76,30.63,999.53,2047.00,3417.01,3331.00,3604.00,349.08,314.80,27.87,0000 0000 0000 0000 000000
2013-09-11 00:42:58,0.00,0.10,0.00,25.77,28.30,30.82,5.84,30.71,999.53,2047.00,3417.00,3331.00,3604.00,349.67,315.28,27.87,0000 0000 0000 0000 000000
2013-09-11 00:43:58,0.00,0.10,0.00,25.77,28.30,30.82,5.90,30.42,999.53,2047.00,3417.00,3331.00,3604.00,350.57,316.21,27.88,0000 0000 0000 0000 000000
2013-09-11 00:44:59,0.00,0.10,0.00,25.78,28.30,30.80,5.82,30.17,999.53,2047.00,3417.00,3331.01,3604.00,349.90,315.84,27.88,0000 0000 0000 0000 000000
2013-09-11 00:45:59,0.00,0.10,0.00,25.79,28.30,30.77,5.81,30.29,999.53,2047.00,3417.02,3331.03,3604.00,349.77,315.33,27.89,0000 0000 0000 0000 000000
2013-09-11 00:46:59,0.00,0.10,0.00,25.76,28.30,30.79,5.86,30.04,999.53,2047.00,3417.02,3331.05,3604.02,350.36,315.69,27.90,0000 0000 0000 0000 000000
2013-09-11 00:47:59,0.00,0.10,0.00,25.73,28.30,30.81,5.73,30.04,999.52,2047.00,3417.00,3331.04,3604.04,349.36,315.03,27.90,0000 0000 0000 0000 000000
2013-09-11 00:48:59,0.00,0.10,0.00,25.70,28.30,30.81,5.85,30.04,999.53,2047.00,3417.00,3331.05,3604.02,350.30,315.91,27.91,0000 0000 0000 0000 000000
2013-09-11 00:50:00,0.00,0.10,0.00,25.73,28.30,30.81,5.88,30.63,999.53,2047.00,3417.01,3331.04,3604.01,350.60,316.15,27.91,0000 0000 0000 0000 000000
2013-09-11 00:51:00,0.00,0.10,0.00,25.75,28.31,30.79,5.91,30.75,999.53,2047.00,3417.00,3331.02,3604.00,350.74,316.26,27.92,0000 0000 0000 0000 000000
2013-09-11 00:52:00,0.01,0.10,0.00,25.72,28.31,30.80,5.78,30.42,999.53,2047.00,3417.00,3331.00,3604.00,351.53,316.99,27.92,0000 0000 0000 0000 000000
2013-09-11 00:53:01,0.00,0.10,0.00,25.71,28.31,30.80,5.67,30.21,999.50,2047.00,3417.00,3331.02,3604.00,349.31,315.00,27.93,0000 0000 0000 0000 000000
2013-09-11 00:54:01,0.00,0.10,0.00,25.66,28.31,30.81,5.98,30.33,999.49,2047.00,3417.00,3331.01,3604.00,350.47,316.18,27.94,0000 0000 0000 0000 000000
2013-09-11 00:55:01,0.00,0.10,0.00,25.63,28.31,30.84,5.93,30.33,999.47,2047.00,3417.00,3331.01,3604.00,350.66,316.87,27.94,0000 0000 0000 0000 000000
2013-09-11 00:56:01,0.00,0.10,0.00,25.62,28.31,30.81,5.76,30.29,999.47,2047.00,3417.00,3331.00,3604.00,350.15,315.48,27.95,0000 0000 0000 0000 000000
2013-09-11 00:57:01,0.00,0.10,0.00,25.68,28.31,30.83,5.83,30.04,999.45,2047.00,3416.99,3331.00,3604.00,350.34,315.61,27.95,0000 0000 0000 0000 000000
2013-09-11 00:58:01,0.00,0.10,0.00,25.71,28.31,30.83,5.74,30.29,999.48,2047.00,3416.94,3331.00,3604.00,350.77,316.32,27.96,0000 0000 0000 0000 000000
2013-09-11 00:59:02,0.01,0.10,0.00,25.69,28.31,30.85,5.68,30.17,999.49,2047.00,3416.90,3331.00,3603.98,349.41,315.11,27.97,0000 0000 0000 0000 000000
2013-09-11 01:00:02,0.00,0.10,0.00,25.68,28.31,30.84,5.67,30.17,999.49,2047.00,3416.91,3331.00,3603.99,348.77,314.54,27.97,0000 0000 0000 0000 000000
2013-09-11 01:01:02,0.00,0.10,0.00,25.73,28.31,30.82,5.74,30.25,999.49,2047.00,3416.92,3331.00,3603.99,348.91,314.62,27.98,0000 0000 0000 0000 000000
2013-09-11 01:02:03,0.00,0.10,0.00,25.73,28.31,30.82,5.90,30.08,999.49,2047.00,3416.94,3331.00,3603.98,350.87,316.38,27.98,0000 0000 0000 0000 000000
2013-09-11 01:03:03,0.00,0.10,0.00,25.65,28.32,30.83,5.84,30.08,999.49,2047.00,3416.95,3331.00,3603.98,350.41,316.06,27.99,0000 0000 0000 0000 000000
2013-09-11 01:04:03,0.00,0.10,0.00,25.61,28.31,30.84,5.83,30.29,999.47,2047.00,3416.95,3331.00,3603.98,349.55,315.27,27.99,0000 0000 0000 0000 000000
2013-09-11 01:05:03,0.00,0.10,0.00,25.67,28.32,30.83,5.92,30.42,999.46,2047.00,3416.95,3331.00,3603.97,350.14,315.79,28.00,0000 0000 0000 0000 000000
2013-09-11 01:06:04,0.00,0.10,0.00,25.70,28.32,30.82,5.82,30.38,999.48,2047.00,3416.95,3331.00,3603.97,349.87,315.51,28.01,0000 0000 0000 0000 000000
2013-09-11 01:07:04,0.00,0.10,0.00,25.70,28.32,30.81,5.74,30.13,999.49,2047.00,3416.94,3331.00,3603.95,350.15,315.76,28.01,0000 0000 0000 0000 000000
2013-09-11 01:08:04,0.00,0.10,0.00,25.66,28.32,30.79,5.78,30.17,999.50,2047.00,3416.95,3330.99,3603.97,350.72,316.36,28.02,0000 0000 0000 0000 000000
2013-09-11 01:09:04,0.00,0.10,0.00,25.68,28.32,30.81,5.72,30.13,999.45,2047.00,3416.96,3330.99,3603.99,349.46,315.50,28.02,0000 0000 0000 0000 000000
2013-09-11 01:10:05,0.00,0.10,0.00,25.66,28.32,30.82,5.70,30.13,999.41,2047.00,3416.96,3330.99,3603.97,349.08,314.35,28.03,0000 0000 0000 0000 000000
2013-09-11 01:11:05,0.00,0.10,0.00,25.69,28.32,30.82,5.80,30.04,999.43,2047.00,3416.95,3330.99,3603.98,349.85,315.48,28.04,0000 0000 0000 0000 000000
2013-09-11 01:12:05,0.00,0.10,0.00,25.66,28.32,30.82,5.82,29.96,999.45,2047.00,3416.97,3330.99,3603.98,349.24,314.94,28.04,0000 0000 0000 0000 000000
2013-09-11 01:13:05,0.00,0.10,0.00,25.64,28.32,30.82,5.64,30.17,999.45,2047.00,3416.98,3330.99,3603.99,349.50,315.05,28.05,0000 0000 0000 0000 000000
2013-09-11 01:14:06,0.00,0.10,0.00,25.61,28.32,30.80,5.64,30.25,999.41,2047.00,3416.96,3330.99,3603.98,349.34,315.38,28.05,0000 0000 0000 0000 000000
2013-09-11 01:15:06,0.00,0.10,0.00,25.57,28.32,30.80,5.80,30.25,999.41,2047.00,3416.97,3330.99,3603.99,349.83,315.19,28.06,0000 0000 0000 0000 000000
2013-09-11 01:16:06,0.00,0.10,0.00,25.52,28.32,30.83,5.73,30.33,999.38,2047.00,3416.97,3330.99,3603.99,349.75,315.74,28.06,0000 0000 0000 0000 000000
2013-09-11 01:17:06,0.00,0.10,0.00,25.50,28.32,30.81,5.85,30.33,999.28,2047.00,3416.94,3330.99,3603.98,348.88,314.99,28.07,0000 0000 0000 0000 000000
2013-09-11 01:18:07,0.00,0.10,0.00,25.54,28.32,30.82,5.82,30.13,999.25,2047.00,3416.88,3330.99,3603.99,350.51,316.18,28.08,0000 0000 0000 0000 000000
2013-09-11 01:19:07,0.01,0.10,0.00,25.61,28.32,30.82,5.80,30.25,999.31,2047.00,3416.90,3330.99,3603.99,350.60,316.22,28.08,0000 0000 0000 0000 000000
2013-09-11 01:20:07,0.00,0.10,0.00,25.63,28.32,30.82,5.91,30.21,999.37,2047.00,3416.93,3330.99,3603.98,350.37,316.00,28.09,0000 0000 0000 0000 000000
2013-09-11 01:21:07,0.00,0.10,0.00,25.55,28.32,30.81,5.91,30.04,999.41,2047.00,3416.88,3330.99,3603.98,350.48,316.41,28.09,0000 0000 0000 0000 000000
2013-09-11 01:22:08,0.01,0.10,0.00,25.53,28.32,30.79,5.93,30.17,999.46,2047.00,3416.93,3330.99,3603.98,350.07,315.86,28.10,0000 0000 0000 0000 000000
2013-09-11 01:23:08,-0.01,0.10,0.00,25.50,28.32,30.81,5.79,30.33,999.38,2047.00,3416.94,3330.99,3603.99,349.54,315.12,28.11,0000 0000 0000 0000 000000
2013-09-11 01:24:08,0.00,0.10,0.00,25.52,28.32,30.80,5.88,30.21,999.31,2047.00,3416.73,3330.99,3603.99,350.08,315.97,28.11,0000 0000 0000 0000 000000
2013-09-11 01:25:08,0.02,0.10,0.00,25.53,28.32,30.81,5.81,30.29,999.31,2047.00,3416.70,3330.99,3603.96,349.82,315.59,28.12,0000 0000 0000 0000 000000
2013-09-11 01:26:08,0.01,0.10,0.00,25.57,28.32,30.79,5.74,30.21,999.34,2047.00,3416.74,3330.99,3603.98,349.33,315.35,28.12,0000 0000 0000 0000 000000
2013-09-11 01:27:09,-0.00,0.10,0.00,25.54,28.32,30.81,5.87,30.17,999.35,2047.00,3416.50,3330.98,3603.97,350.32,316.04,28.13,0000 0000 0000 0000 000000
2013-09-11 01:28:09,0.03,0.10,0.00,25.48,28.32,30.83,5.82,30.13,999.32,2047.00,3416.36,3330.99,3603.93,349.87,315.69,28.14,0000 0000 0000 0000 000000
2013-09-11 01:29:09,0.02,0.10,0.00,25.50,28.32,30.86,5.67,30.13,999.40,2047.00,3416.45,3330.99,3603.91,349.68,315.52,28.14,0000 0000 0000 0000 000000
2013-09-11 01:30:09,-0.00,0.10,0.00,25.49,28.32,30.85,5.86,30.04,999.40,2047.00,3416.21,3330.98,3603.90,350.83,316.72,28.15,0000 0000 0000 0000 000000
2013-09-11 01:31:09,0.03,0.10,0.00,25.51,28.32,30.78,5.77,30.08,999.40,2047.00,3416.15,3330.98,3603.93,350.50,316.26,28.15,0000 0000 0000 0000 000000
2013-09-11 01:32:10,-0.00,0.10,0.00,25.52,28.32,30.82,5.71,30.17,999.40,2047.00,3416.21,3330.99,3603.96,349.58,315.40,28.16,0000 0000 0000 0000 000000
2013-09-11 01:33:10,-0.01,0.10,0.00,25.55,28.32,30.87,5.81,30.63,999.42,2047.00,3416.23,3330.99,3603.93,350.18,315.93,28.16,0000 0000 0000 0000 000000
2013-09-11 01:34:10,0.00,0.10,0.00,25.55,28.32,30.84,5.98,30.83,999.42,2047.00,3416.15,3330.98,3603.90,350.50,316.49,28.17,0000 0000 0000 0000 000000
2013-09-11 01:35:10,0.01,0.10,0.00,25.48,28.32,30.83,5.80,30.67,999.43,2047.00,3416.14,3330.98,3603.90,349.67,315.54,28.18,0000 0000 0000 0000 000000
2013-09-11 01:36:11,0.00,0.10,0.00,25.50,28.32,30.78,5.89,30.46,999.40,2047.00,3416.07,3330.99,3603.86,350.66,316.28,28.18,0000 0000 0000 0000 000000
2013-09-11 01:37:11,0.01,0.10,0.00,25.51,28.32,30.80,5.74,30.25,999.42,2047.00,3416.06,3330.98,3603.88,349.58,315.44,28.19,0000 0000 0000 0000 000000
2013-09-11 01:38:11,0.00,0.10,0.00,25.44,28.32,30.85,5.69,30.21,999.38,2047.00,3416.06,3330.99,3603.91,349.64,315.54,28.19,0000 0000 0000 0000 000000
2013-09-11 01:39:12,0.00,0.10,0.00,25.43,28.32,30.83,5.65,30.13,999.39,2047.00,3416.09,3330.99,3603.86,349.30,315.25,28.20,0000 0000 0000 0000 000000
2013-09-11 01:40:12,0.00,0.10,0.00,25.43,28.32,30.85,6.02,30.75,999.39,2047.00,3416.07,3330.99,3603.78,350.67,316.49,28.21,0000 0000 0000 0000 000000
2013-09-11 01:41:12,0.01,0.10,0.00,25.47,28.32,30.86,5.95,30.38,999.33,2047.00,3416.03,3330.97,3603.78,349.95,315.78,28.21,0000 0000 0000 0000 000000
2013-09-11 01:42:12,0.01,0.10,0.00,25.47,28.32,30.83,5.87,30.46,999.26,2047.00,3416.00,3330.95,3603.59,349.97,315.77,28.22,0000 0000 0000 0000 000000
2013-09-11 01:43:13,0.02,0.10,0.00,25.46,28.32,30.77,5.88,30.38,999.27,2047.00,3416.00,3330.94,3603.36,350.22,316.02,28.22,0000 0000 0000 0000 000000
2013-09-11 01:44:13,0.03,0.10,0.00,25.46,28.32,30.72,5.78,30.25,999.25,2047.00,3416.00,3330.91,3603.24,350.37,316.13,28.23,0000 0000 0000 0000 000000
2013-09-11 01:45:13,0.01,0.10,0.00,25.36,28.32,30.76,5.63,30.13,999.27,2047.00,3416.01,3330.95,3603.26,348.50,314.94,28.24,0000 0000 0000 0000 000000
2013-09-11 01:46:14,-0.01,0.10,0.00,25.31,28.32,30.80,5.60,30.13,999.26,2047.00,3416.01,3330.98,3603.38,348.61,315.20,28.24,0000 0000 0000 0000 000000
2013-09-11 01:47:14,-0.01,0.10,0.00,25.38,28.32,30.83,5.73,30.21,999.16,2047.00,3416.03,3330.96,3603.55,349.00,315.21,28.25,0000 0000 0000 0000 000000
2013-09-11 01:48:14,-0.01,0.10,0.00,25.41,28.32,30.78,5.92,30.08,999.16,2047.00,3416.03,3330.97,3603.59,350.40,316.20,28.25,0000 0000 0000 0000 000000
2013-09-11 01:49:14,0.00,0.10,0.00,25.38,28.32,30.75,5.78,30.04,999.14,2047.00,3416.03,3330.97,3603.59,349.36,315.44,28.26,0000 0000 0000 0000 000000
2013-09-11 01:50:14,-0.00,0.10,0.00,25.30,28.32,30.80,5.93,30.08,999.14,2047.00,3416.02,3330.98,3603.67,350.35,316.34,28.26,0000 0000 0000 0000 000000
2013-09-11 01:51:15,-0.01,0.10,0.00,25.25,28.32,30.86,5.81,30.08,999.16,2047.00,3416.01,3330.99,3603.80,349.74,316.15,28.27,0000 0000 0000 0000 000000
2013-09-11 01:52:15,-0.01,0.10,0.00,25.20,28.32,30.85,5.97,30.21,999.14,2047.00,3416.03,3330.99,3603.86,350.74,316.71,28.28,0000 0000 0000 0000 000000
2013-09-11 01:53:15,-0.00,0.10,0.00,25.22,28.32,30.85,5.83,30.04,999.15,2047.00,3416.03,3330.98,3603.72,349.52,315.59,28.28,0000 0000 0000 0000 000000
2013-09-11 01:54:15,0.01,0.10,0.00,25.30,28.32,30.87,6.05,30.83,999.16,2047.00,3416.01,3330.96,3603.51,351.19,317.04,28.29,0000 0000 0000 0000 000000
2013-09-11 01:55:16,0.02,0.10,0.00,25.29,28.32,30.85,5.84,30.42,999.13,2047.00,3416.00,3330.96,3603.32,349.92,316.10,28.29,0000 0000 0000 0000 000000
2013-09-11 01:56:16,0.03,0.10,0.00,25.25,28.32,30.91,5.77,30.21,999.17,2047.00,3416.00,3330.93,3603.19,349.36,315.36,28.30,0000 0000 0000 0000 000000
2013-09-11 01:57:16,0.02,0.10,0.00,25.29,28.32,30.97,5.83,30.38,999.14,2047.00,3416.00,3330.94,3603.13,349.83,315.80,28.31,0000 0000 0000 0000 000000
2013-09-11 01:58:16,0.01,0.10,0.00,25.28,28.32,30.95,5.82,30.21,999.20,2047.00,3416.00,3330.94,3603.11,350.81,316.95,28.31,0000 0000 0000 0000 000000
2013-09-11 01:59:17,0.00,0.10,0.00,25.22,28.32,30.95,5.73,30.13,999.20,2047.00,3416.00,3330.87,3603.09,349.89,315.94,28.32,0000 0000 0000 0000 000000
2013-09-11 02:00:17,0.01,0.10,0.00,25.19,28.32,30.93,5.80,30.13,999.17,2047.00,3416.00,3330.84,3603.05,350.48,316.54,28.32,0000 0000 0000 0000 000000
2013-09-11 02:01:17,0.00,0.10,0.00,25.20,28.32,30.93,5.90,30.04,999.18,2047.00,3416.00,3330.92,3603.12,350.41,316.44,28.33,0000 0000 0000 0000 000000
2013-09-11 02:02:18,-0.02,0.10,0.00,25.19,28.32,30.86,5.76,30.08,999.23,2047.00,3416.01,3330.95,3603.15,350.04,316.12,28.33,0000 0000 0000 0000 000000
2013-09-11 02:03:18,-0.01,0.10,0.00,25.22,28.32,30.86,5.77,29.92,999.20,2047.00,3416.00,3330.96,3603.15,350.26,316.29,28.34,0000 0000 0000 0000 000000
2013-09-11 02:04:18,-0.01,0.10,0.00,25.29,28.32,30.85,5.83,29.96,999.20,2047.00,3416.01,3330.97,3603.23,350.65,316.65,28.35,0000 0000 0000 0000 000000
2013-09-11 02:05:18,-0.01,0.10,0.00,25.30,28.32,30.80,5.83,30.46,999.18,2047.00,3416.01,3330.97,3603.12,349.43,315.46,28.35,0000 0000 0000 0000 000000
2013-09-11 02:06:19,0.00,0.10,0.00,25.28,28.32,30.88,5.81,30.08,999.19,2047.00,3416.00,3330.98,3603.36,350.17,316.13,28.36,0000 0000 0000 0000 000000
2013-09-11 02:07:19,-0.02,0.10,0.00,25.22,28.32,30.81,5.86,30.00,999.22,2047.00,3416.00,3330.98,3603.34,350.06,316.10,28.36,0000 0000 0000 0000 000000
2013-09-11 02:08:19,0.00,0.10,0.00,25.20,28.32,30.80,5.95,30.13,999.20,2047.00,3416.00,3330.98,3603.27,350.10,316.16,28.37,0000 0000 0000 0000 000000
2013-09-11 02:09:19,0.00,0.10,0.00,25.15,28.32,30.83,5.82,30.29,999.25,2047.00,3416.01,3330.98,3603.37,350.05,316.18,28.38,0000 0000 0000 0000 000000
2013-09-11 02:10:20,0.00,0.10,0.00,25.06,28.31,30.84,5.94,30.25,999.20,2047.00,3416.00,3330.95,3603.28,349.83,316.30,28.38,0000 0000 0000 0000 000000
2013-09-11 02:11:20,0.01,0.10,0.00,25.00,28.31,30.81,5.62,30.08,999.15,2047.00,3415.99,3330.94,3603.17,349.12,315.47,28.39,0000 0000 0000 0000 000000
2013-09-11 02:12:20,0.01,0.10,0.00,25.04,28.31,30.85,5.84,30.21,999.14,2047.00,3415.99,3330.95,3603.15,350.74,316.79,28.39,0000 0000 0000 0000 000000
2013-09-11 02:13:21,0.00,0.10,0.00,25.04,28.30,30.84,5.77,30.13,999.14,2047.00,3415.99,3330.94,3603.18,349.78,315.75,28.40,0000 0000 0000 0000 000000
2013-09-11 02:14:21,0.00,0.10,0.00,25.04,28.30,30.86,5.88,30.13,999.13,2047.00,3415.99,3330.93,3603.10,349.83,316.07,28.40,0000 0000 0000 0000 000000
2013-09-11 02:15:21,0.01,0.10,0.00,25.07,28.30,30.81,5.89,30.04,999.15,2047.00,3415.97,3330.89,3603.09,350.45,316.67,28.41,0000 0000 0000 0000 000000
2013-09-11 02:16:21,0.01,0.10,0.00,25.14,28.30,30.86,5.85,30.13,999.08,2047.00,3415.99,3330.89,3603.09,349.26,315.67,28.42,0000 0000 0000 0000 000000
2013-09-11 02:17:22,-0.01,0.10,0.00,25.14,28.30,30.88,5.82,30.25,999.08,2047.00,3415.99,3330.93,3603.24,350.09,316.18,28.42,0000 0000 0000 0000 000000
2013-09-11 02:18:22,-0.02,0.10,0.00,25.07,28.30,30.82,5.78,30.08,999.08,2047.00,3415.99,3330.97,3603.35,349.90,316.08,28.43,0000 0000 0000 0000 000000
2013-09-11 02:19:22,-0.01,0.10,0.00,24.98,28.30,30.80,5.91,30.25,999.08,2047.00,3415.99,3330.97,3603.29,350.67,316.87,28.43,0000 0000 0000 0000 000000
2013-09-11 02:20:23,0.00,0.10,0.00,24.95,28.30,30.77,5.76,30.17,999.09,2047.00,3415.99,3330.97,3603.24,349.51,315.85,28.44,0000 0000 0000 0000 000000
2013-09-11 02:21:23,0.00,0.10,0.00,24.94,28.30,30.74,5.84,30.00,999.05,2047.00,3415.99,3330.95,3603.28,350.08,316.38,28.45,0000 0000 0000 0000 000000
2013-09-11 02:22:23,-0.01,0.10,0.00,24.89,28.30,30.77,5.82,30.13,999.07,2047.00,3415.99,3330.97,3603.41,350.22,316.56,28.45,0000 0000 0000 0000 000000
2013-09-11 02:23:24,-0.01,0.10,0.00,24.90,28.30,30.82,6.00,30.17,999.10,2047.00,3415.99,3330.97,3603.32,350.50,317.27,28.46,0000 0000 0000 0000 000000
2013-09-11 02:24:24,0.01,0.10,0.00,24.89,28.30,30.86,5.75,30.00,999.07,2047.00,3415.99,3330.98,3603.17,349.78,316.07,28.46,0000 0000 0000 0000 000000
2013-09-11 02:25:24,0.01,0.10,0.00,24.88,28.30,30.87,5.96,30.13,999.06,2047.00,3415.99,3330.95,3603.10,350.46,316.77,28.47,0000 0000 0000 0000 000000
2013-09-11 02:26:24,0.01,0.10,0.00,24.91,28.30,30.89,5.89,30.21,999.06,2047.00,3415.98,3330.96,3603.13,348.96,315.39,28.48,0000 0000 0000 0000 000000
2013-09-11 02:27:24,0.00,0.10,0.00,24.86,28.30,30.86,5.73,30.04,999.05,2047.00,3415.98,3330.96,3603.13,349.01,315.48,28.48,0000 0000 0000 0000 000000
2013-09-11 02:28:25,0.00,0.10,0.00,24.84,28.30,30.86,6.03,30.42,999.04,2047.00,3415.97,3330.93,3603.10,350.48,316.99,28.49,0000 0000 0000 0000 000000
2013-09-11 02:29:25,0.00,0.10,0.00,24.83,28.30,30.92,5.84,30.33,999.06,2047.00,3415.98,3330.96,3603.15,349.79,315.97,28.49,0000 0000 0000 0000 000000
2013-09-11 02:30:25,0.00,0.10,0.00,24.84,28.30,30.89,5.74,30.25,999.05,2047.00,3415.99,3330.96,3603.14,349.12,315.88,28.50,0000 0000 0000 0000 000000
2013-09-11 02:31:25,-0.01,0.10,0.00,24.85,28.30,30.94,5.93,30.25,999.05,2047.00,3415.98,3330.97,3603.21,350.61,316.41,28.50,0000 0000 0000 0000 000000
2013-09-11 02:32:26,-0.01,0.10,0.00,24.83,28.30,30.94,5.92,30.21,999.05,2047.00,3415.99,3330.97,3603.15,349.94,316.35,28.51,0000 0000 0000 0000 000000
2013-09-11 02:33:26,0.00,0.10,0.00,24.73,28.30,30.90,5.82,30.46,999.06,2047.00,3415.99,3330.99,3603.31,349.26,315.89,28.52,0000 0000 0000 0000 000000
2013-09-11 02:34:26,-0.01,0.10,0.00,24.62,28.30,30.92,5.82,30.33,999.04,2047.00,3415.98,3330.99,3603.56,350.41,316.85,28.52,0000 0000 0000 0000 000000
2013-09-11 02:35:26,-0.01,0.10,0.00,24.58,28.30,30.94,5.98,30.33,999.05,2047.00,3415.98,3330.99,3603.62,349.45,315.89,28.53,0000 0000 0000 0000 000000
2013-09-11 02:36:27,0.00,0.10,0.00,24.51,28.30,30.89,5.80,29.96,999.04,2047.00,3415.98,3330.99,3603.54,350.00,316.74,28.53,0000 0000 0000 0000 000000
2013-09-11 02:37:27,0.00,0.10,0.00,24.54,28.30,30.87,5.94,30.08,999.05,2047.01,3415.99,3330.99,3603.64,350.26,316.96,28.54,0000 0000 0000 0000 000000